Portada
METAR-TAF:

METAR-TAF

Aeroports :

Municipal_Airport

Plymouth, Nova Hampshire, Estats Units d'Amèrica

latitud: 43-46-45N, longitud: 071-45-13W, altitud: 154 m

Observació

L'informe es va fer fa 9 minuts, a les 14:15 UTC
Vent calma
Temperatura -1°C
Humitat 74%
Pressió 1016 hPa
Visibilitat: 16.1 km
Cel cobert a una alçada de 2500 ft

METAR: K1P1 181415Z AUTO 00000KT 10SM OVC025 M01/M05 A2999 RMK AO2 T10071050

Hora: 09:24 (14:24 UTC)


TAF: manca

Observacions i pronòstics meteorològics de més de 4000 aeroports (METAR i TAF).

Les estacions disponibles són els punts grocs i vermells al mapa.

Posi el ratolí al punt desitjat per veure el nom de l'estació.

Feu clic per veure les observacions i els pronòstics meteorològics.

Per canviar el mapa: feu clic els botons verds amb una creu de color negre per apropar; al botó verd amb un guió per allunyar la imatge; o en les fletxes verdes per a mapes adjacents.


METAR-TAF: